• Join FlightAware (Why Join?)
  • Login
  • US Flag 
04:10PM EST


 

Airport Tracker/Info


-or-


 

Live Flight TrackerFlight Track Log ✈ N618JB ✈ 11-Apr-2013 ✈ KMCO - KEWR

Flight Track Log - Related Links

Times and Time Zones

All times are in EDT time to prevent confusion due to time zone crossing. See the N618JB flight status page for this flight to view local times or setup timezone preferences in your user account.

Time Position Orientation Groundspeed Altitude Reporting Facility
EDT Latitude Longitude Course Direction KTS MPH feet Rate Location/Type
09:09AM 28.4167 -81.3167 350° North 152 175 800  Level Orlando TRACON
09:09AM 28.4000 -81.3000 139° Southeast 159 183 1,800 1,800 Climbing Orlando TRACON
09:10AM 28.3667 -81.2500 127° Southeast 223 257 3,500 2,340 Climbing Orlando TRACON
09:11AM 28.3500 -81.1833 106° East 260 299 6,500 2,220 Climbing Orlando TRACON
09:12AM 28.8590 -81.3526 355° North  Level FlightAware Approximate
09:12AM 28.3667 -81.1000 77° East 279 321 8,000  Level Orlando TRACON
09:13AM 28.9716 -81.3638 355° North  Level FlightAware Approximate
09:13AM 28.4500 -81.1000 360° North 301 346 8,700  Level Orlando TRACON
09:14AM 29.0833 -81.3833 350° North  Level FlightAware Approximate
09:15AM 28.6058 -81.1711 338° Northwest 349 402 12,100  Level Jacksonville Center
09:16AM 28.7044 -81.2167 338° Northwest 367 422 14,600 2,280 Climbing Jacksonville Center
09:17AM 28.8031 -81.2578 340° North 374 430 16,700 1,920 Climbing Jacksonville Center
09:18AM 28.9081 -81.3033 339° North 379 436 18,500 1,860 Climbing Jacksonville Center
09:19AM 29.0108 -81.3542 337° Northwest 391 450 20,500 1,680 Climbing Jacksonville Center
09:20AM 29.1242 -81.3928 343° North 402 463 21,900 1,440 Climbing Jacksonville Center
09:21AM 29.2433 -81.4028 356° North 415 478 23,400 1,560 Climbing Jacksonville Center
09:22AM 29.3644 -81.4175 354° North 426 490 25,100 1,560 Climbing Jacksonville Center
09:23AM 29.4983 -81.4300 355° North 437 503 26,600 900 Climbing Jacksonville Center
09:24AM 29.6214 -81.4425 355° North 437 503 27,000 180 Climbing Jacksonville Center
09:25AM 29.7469 -81.4525 356° North 443 510 27,000  Level Jacksonville Center
09:26AM 29.8703 -81.4650 355° North 443 510 27,000  Level Jacksonville Center
09:27AM 29.9956 -81.4775 355° North 443 510 27,000 120 Level Jacksonville Center
09:28AM 30.1211 -81.4925 354° North 448 516 27,300 480 Climbing Jacksonville Center
09:29AM 30.2303 -81.5558 333° Northwest 434 499 28,000 360 Climbing Jacksonville Center
09:30AM 30.3356 -81.6339 327° Northwest 434 499 28,100 600 Climbing Jacksonville Center
09:31AM 30.4406 -81.7119 327° Northwest 447 514 29,200 1,020 Climbing Jacksonville Center
09:32AM 30.5642 -81.7539 344° North 453 521 30,200 900 Climbing Jacksonville Center
09:33AM 30.6911 -81.7136 15° North 437 503 31,000 360 Climbing Jacksonville Center
09:34AM 30.8139 -81.6711 17° North 444 511 31,000  Level Jacksonville Center
09:35AM 30.9389 -81.6283 16° North 444 511 31,000  Level Jacksonville Center
09:36AM 31.0617 -81.5831 18° North 454 522 31,000  Level Jacksonville Center
09:37AM 31.1883 -81.5400 16° North 459 528 31,000  Level Jacksonville Center
09:38AM 31.3153 -81.4942 17° North 464 534 31,000  Level Jacksonville Center
09:39AM 31.4400 -81.4486 17° North 464 534 31,000  Level Jacksonville Center
09:40AM 31.5692 -81.4053 16° North 472 543 31,000  Level Jacksonville Center
09:41AM 31.6814 -81.3642 17° North 472 543 31,000  Level Jacksonville Center
09:42AM 31.8206 -81.3156 17° North 472 543 31,000  Level Jacksonville Center
09:43AM 31.9369 -81.2719 18° North 472 543 31,000  Level Jacksonville Center
09:44AM 32.0658 -81.2256 17° North 472 543 31,000  Level Jacksonville Center
09:45AM 32.1861 -81.1669 22° Northeast 472 543 31,000  Level Jacksonville Center
09:46AM 32.2997 -81.0861 31° Northeast 472 543 31,000  Level Jacksonville Center
09:47AM 32.4156 -81.0050 31° Northeast 472 543 31,000  Level Jacksonville Center
09:48AM 32.5292 -80.9264 30° Northeast 472 543 31,000  Level Jacksonville Center
09:49AM 32.6406 -80.8425 32° Northeast 472 543 31,000  Level Jacksonville Center
09:50AM 32.7539 -80.7608 31° Northeast 467 537 31,000  Level Jacksonville Center
09:51AM 32.8653 -80.6792 32° Northeast 467 537 31,000  Level Jacksonville Center
09:52AM 32.9869 -80.5894 32° Northeast 467 537 31,000  Level Jacksonville Center
09:53AM 33.1003 -80.5097 31° Northeast 467 537 31,000  Level Jacksonville Center
09:54AM 33.2114 -80.4297 31° Northeast 467 537 31,000  Level Jacksonville Center
09:55AM 33.3225 -80.3447 33° Northeast 467 537 31,000  Level Jacksonville Center
09:56AM 33.4314 -80.2644 32° Northeast 461 531 31,000  Level Jacksonville Center
09:57AM 33.5403 -80.1814 32° Northeast 461 531 31,000  Level Jacksonville Center
09:58AM 33.6489 -80.1006 32° Northeast 461 531 31,000  Level Jacksonville Center
09:59AM 33.7556 -80.0175 33° Northeast 461 531 31,000  Level Jacksonville Center
10:00AM 33.8644 -79.9389 31° Northeast 461 531 31,000  Level Jacksonville Center
10:01AM 33.9731 -79.8550 33° Northeast 461 531 31,000  Level Jacksonville Center
10:02AM 34.0775 -79.7736 33° Northeast 461 531 31,000  Level Jacksonville Center
10:05AM 34.3339 -79.6108 28° Northeast 451 519 31,000  Level Washington Center
10:06AM 34.4467 -79.5408 27° Northeast 451 519 31,000  Level Washington Center
10:07AM 34.5594 -79.4731 26° Northeast 451 519 31,000  Level Washington Center
10:08AM 34.6703 -79.4025 28° Northeast 451 519 31,000  Level Washington Center
10:09AM 34.7831 -79.3319 27° Northeast 451 519 31,000  Level Washington Center
10:10AM 34.8939 -79.2611 28° Northeast 446 513 31,000  Level Washington Center
10:11AM 35.0064 -79.1928 26° Northeast 446 513 31,000  Level Washington Center
10:12AM 35.1278 -79.1169 27° Northeast 446 513 31,000  Level Washington Center
10:13AM 35.2422 -79.0481 26° Northeast 446 513 31,000  Level Washington Center
10:14AM 35.3572 -78.9742 28° Northeast 446 513 31,000  Level Washington Center
10:15AM 35.4719 -78.9025 27° Northeast 451 519 31,000  Level Washington Center
10:16AM 35.5864 -78.8306 27° Northeast 451 519 31,000  Level Washington Center
10:17AM 35.7031 -78.7586 27° Northeast 456 525 31,000  Level Washington Center
10:18AM 35.8178 -78.6839 28° Northeast 456 525 31,000  Level Washington Center
10:19AM 35.9325 -78.6086 28° Northeast 456 525 31,000  Level Washington Center
10:20AM 36.0469 -78.5361 27° Northeast 456 525 31,000  Level Washington Center
10:21AM 36.1572 -78.4631 28° Northeast 456 525 31,000  Level Washington Center
10:22AM 36.2736 -78.3872 28° Northeast 456 525 31,000  Level Washington Center
10:23AM 36.3858 -78.3139 28° Northeast 456 525 31,000  Level Washington Center
10:24AM 36.5003 -78.2406 27° Northeast 456 525 31,000  Level Washington Center
10:25AM 36.6147 -78.1614 29° Northeast 456 525 31,000  Level Washington Center
10:26AM 36.7267 -78.0900 27° Northeast 451 519 31,000  Level Washington Center
10:27AM 36.8389 -78.0133 29° Northeast 451 519 31,000  Level Washington Center
10:28AM 36.9550 -77.9389 27° Northeast 456 525 31,000  Level Washington Center
10:29AM 37.0692 -77.8617 28° Northeast 456 525 31,000  Level Washington Center
10:30AM 37.1833 -77.7842 28° Northeast 456 525 31,000  Level Washington Center
10:31AM 37.2972 -77.7092 28° Northeast 456 525 31,000  Level Washington Center
10:32AM 37.4133 -77.6339 27° Northeast 456 525 31,000  Level Washington Center
10:33AM 37.5272 -77.5583 28° Northeast 456 525 31,000  Level Washington Center
10:34AM 37.6411 -77.4800 29° Northeast 456 525 31,000  Level Washington Center
10:35AM 37.7531 -77.4014 29° Northeast 456 525 31,000  Level Washington Center
10:36AM 37.8667 -77.3253 28° Northeast 462 532 31,000  Level Washington Center
10:37AM 37.9803 -77.2461 29° Northeast 462 532 31,000  Level Washington Center
10:38AM 38.0919 -77.1669 29° Northeast 462 532 31,000  Level Washington Center
10:39AM 38.1975 -77.0714 35° Northeast 462 532 31,000  Level Washington Center
10:40AM 38.3050 -76.9756 35° Northeast 462 532 31,000  Level Washington Center
10:41AM 38.4103 -76.8794 36° Northeast 462 532 31,000  Level Washington Center
10:42AM 38.5156 -76.7858 35° Northeast 462 532 31,000  Level Washington Center
10:43AM 38.6206 -76.6864 36° Northeast 462 532 31,000  Level Washington Center
10:44AM 38.7258 -76.5922 35° Northeast 462 532 31,000  Level Washington Center
10:45AM 38.8308 -76.4978 35° Northeast 462 532 31,000  Level Washington Center
10:46AM 38.9272 -76.4108 35° Northeast 462 532 31,000 -240 Level Washington Center
10:47AM 39.0364 -76.3106 35° Northeast 468 539 30,600 -1,080 Descending Washington Center
10:48AM 39.1431 -76.2125 35° Northeast 473 544 28,900 -1,740 Descending Washington Center
10:49AM 39.2478 -76.1117 37° Northeast 473 544 27,200 -960 Descending Washington Center
10:50AM 39.3442 -76.0050 41° Northeast 462 532 27,000 -120 Descending Washington Center
10:51AM 39.4403 -75.8953 41° Northeast 456 525 27,000 -960 Level Washington Center
10:52AM 39.5342 -75.7800 43° Northeast 456 525 25,100 -2,100 Descending Washington Center
10:53AM 39.6261 -75.6697 43° Northeast 456 525 22,800 -2,220 Descending Washington Center
10:54AM 39.7178 -75.5619 42° Northeast 446 513 20,700 -2,220 Descending Washington Center
10:55AM 39.8072 -75.4564 42° Northeast 441 507 18,400 -2,340 Descending Washington Center
10:56AM 39.8986 -75.3428 44° Northeast 423 487 16,100 -2,280 Descending Washington Center
10:57AM 39.9817 -75.2394 44° Northeast 411 473 13,900 -2,220 Descending Washington Center
10:58AM 40.0647 -75.1414 42° Northeast 406 467 11,700 -1,560 Descending Washington Center
10:59AM 40.1414 -75.0486 43° Northeast 391 450 10,800 -1,080 Descending Washington Center
11:00AM 40.2500 -74.9167 43° Northeast 331 381 9,000 -1,260 Descending New York TRACON
11:01AM 40.3000 -74.8167 57° Northeast 319 367 7,700 -1,680 Descending New York TRACON
11:02AM 40.3333 -74.7167 66° East 312 359 5,700 -1,560 Descending New York TRACON
11:03AM 40.3833 -74.6333 52° Northeast 300 345 4,600 -1,320 Descending New York TRACON
11:04AM 40.4167 -74.5333 66° East 273 314 3,100 -840 Descending New York TRACON
11:05AM 40.4500 -74.4500 62° Northeast 231 266 3,000 -60 Descending New York TRACON
11:06AM 40.4667 -74.3833 72° East 229 264 3,000  Level New York TRACON
11:07AM 40.5000 -74.3167 57° Northeast 227 261 3,000  Level New York TRACON
11:08AM 40.5500 -74.2667 37° Northeast 210 242 3,000 -540 Level New York TRACON
11:09AM 40.6000 -74.2333 27° Northeast 183 211 1,900 -1,020 Descending New York TRACON